User: anonymous   Login
Location: Esp�n
(42.4593°N, 0.2047°W)
Time: 11:29:46
(UTC+00:00)
Language:

Spot 4 Rocket - Orbit

View from above orbital plane
View from above orbital plane
View from above satellite
View from above satellite

Ground track
Ground track

The orbit data is extracted from the following two-line orbital elements,

1 25261U 98017B   21166.86972365  .00000088  00000-0  48012-4 0  9998
2 25261  98.7392 133.0709 0004586  98.4907 261.6797 14.33920159214179
Epoch (UTC): 15 June 2021 20:52:24
Eccentricity: 0.0004586
inclination: 98.7392°
perigee height: 775 km
apogee height: 782 km
right ascension of ascending node: 133.0709°
argument of perigee: 98.4907°
revolutions per day: 14.33920159
mean anomaly at epoch: 261.6797°
orbit number at epoch: 21417

The dashed part of the orbit path shows where the satellite is in the earth's shadow,  

DLR